This is the latest recevied weather packets stored in our database for station/object K9ZOG. If no packets are shown the sender has not sent any weather packets the latest 10 day(s).
| Time | Temp. | Humidity | Pressure | Rain* | Wind** | Luminosity | Snow |
|---|---|---|---|---|---|---|---|
| 1777684153 | 5° C | 56% | 1017.5 hPa | 0 mm | - | 0 W/m² | - |
| 1777683853 | 5° C | 55% | 1017.5 hPa | 0 mm | - | 0 W/m² | - |
| 1777683553 | 5° C | 55% | 1017.5 hPa | 0 mm | - | 1 W/m² | - |
| 1777683253 | 5° C | 55% | 1017.4 hPa | 0 mm | - | 1 W/m² | - |
| 1777682953 | 5.56° C | 55% | 1017.5 hPa | 0 mm | - | 2 W/m² | - |
| 1777682652 | 5.56° C | 55% | 1017.4 hPa | 0 mm | - | 3 W/m² | - |
| 1777682352 | 5.56° C | 57% | 1017.4 hPa | 0 mm | - | 4 W/m² | - |
| 1777682052 | 5.56° C | 56% | 1017.3 hPa | 0 mm | - | 7 W/m² | - |
| 1777681754 | 5.56° C | 57% | 1017.2 hPa | 0 mm | - | 8 W/m² | - |
| 1777681453 | 5.56° C | 56% | 1017.2 hPa | 0 mm | - | 12 W/m² | - |
| 1777681152 | 5.56° C | 56% | 1017 hPa | 0 mm | - | 14 W/m² | - |
| 1777680852 | 5.56° C | 57% | 1017 hPa | 0 mm | - | 18 W/m² | - |
| 1777680553 | 5.56° C | 58% | 1016.7 hPa | 0 mm | - | 24 W/m² | - |
| 1777680253 | 5.56° C | 60% | 1017 hPa | 0 mm | - | 31 W/m² | - |
| 1777679952 | 5.56° C | 60% | 1017 hPa | 0 mm | - | 34 W/m² | - |
| 1777679653 | 5.56° C | 59% | 1017.2 hPa | 0 mm | - | 38 W/m² | - |
| 1777679353 | 5.56° C | 60% | 1017.2 hPa | 0 mm | - | 41 W/m² | - |
| 1777679053 | 5.56° C | 59% | 1017 hPa | 0 mm | - | 45 W/m² | - |
| 1777678752 | 5.56° C | 63% | 1017 hPa | 0 mm | - | 56 W/m² | - |
| 1777678452 | 5.56° C | 62% | 1017 hPa | 0 mm | - | 69 W/m² | - |
| 1777678153 | 5.56° C | 62% | 1017 hPa | 0 mm | - | 71 W/m² | - |
| 1777677852 | 5.56° C | 60% | 1017.2 hPa | 0 mm | - | 76 W/m² | - |
| 1777677553 | 5.56° C | 58% | 1017 hPa | 0 mm | - | 74 W/m² | - |
| 1777677252 | 5.56° C | 58% | 1017.2 hPa | 0 mm | - | 79 W/m² | - |
| 1777676953 | 5.56° C | 59% | 1017 hPa | 0 mm | - | 87 W/m² | - |
* Rain latest hour (hover to see other rain measurements)
** Current wind speed in m/s (hover to see current wind gust speed)